Location: Unspecified
(40.7945°N, 111.1337°W)
Time: 06:47:55
(UTC-06:00)

Cosmos 2058 - Pass Details

Date: 31 March 2019
Orbit: 562 x 584 km, 82.5° (Epoch: 25 April)

Event Time Altitude Azimuth Distance (km) Brightness Sun altitude
Rises 22:21:50 0° 0° (N) 2,805 6.9 -27.9°
Reaches altitude 10° 22:24:11 10° 9° (N) 1,898 5.8 -28.2°
Enters shadow 22:25:03 15° 15° (NNE) 1,583 5.3 -28.4°
